Location: Arnolds Mill
(42.3415°N, 73.5951°W)
Time: 11:17:02
(UTC+00:00)

BlueWalker 3 - Pass Details

Date: 26 June 2024
Orbit: 480 x 492 km, 53.2° (Epoch: 13 July)

Event Time Altitude Azimuth Distance (km) Brightness Sun altitude
Rises 02:46:01 0° 299° (WNW) 2,542 6.6 -17.7°
Reaches altitude 10° 02:48:55 10° 323° (NW) 1,660 5.8 -17.9°
Maximum altitude 02:51:12 15° 1° (N) 1,361 4.9 -18.2°
Drops below altitude 10° 02:53:30 10° 39° (NE) 1,658 4.8 -18.4°
Sets 02:56:23 0° 63° (ENE) 2,537 5.5 -18.6°
